TIME,DELAY(SENSOR),PRES,OXYGEN,RAWTEMP,T(OPTODE),TCPHASE,FLUOR,BETA(BETA700),BETA(BETA412),BETA(BETA440),CDOM,C(CSC),ED(ED412.20),ED(ED444.00),ED(ED489.60),ED(ED554.30),LU(LU412.10),LU(LU443.90),LU(LU489.70),LU(LU554.70),COMP,TILTX,TILTY,CHECK
1360292219,5805,870.0499877929688000,33.1133308410644500,558.8497924804688000,4.5215377807617190,56.5756492614746100,55,99,100,78,82,15548,0,0,0,0,2147120192,2147765540,2147567881,2147567680,2672,2,13,42103
1360295815,5811,937.5999755859375000,39.5983581542968750,566.4984741210938000,4.2843208312988280,55.6426315307617200,55,99,100,79,82,15546,0,0,0,0,2147120612,2147771108,2147572580,2147568521,3265,2,13,5415
1360299415,5810,951.4600219726562000,40.5858802795410160,567.3892211914062000,4.2566637992858890,55.4974212646484400,55,97,101,78,83,15549,0,0,0,0,2147121499,2147775451,2147573915,2147569078,44,3,13,32984
1360303015,5811,977.0000000000000000,41.4497985839843750,568.9202270507812000,4.2091121673583980,55.3913497924804700,54,97,99,77,82,15539,0,0,0,0,2147119808,2147769993,2147575817,2147571318,406,2,13,20958
1360306615,5811,974.5200195312500000,41.2638397216796900,570.4534912109375000,4.1614689826965330,55.4296798706054700,55,99,100,77,83,15541,0,0,0,0,2147121691,2147767780,2147573485,2147568822,859,2,13,41253
1360310215,5811,983.6599731445312000,41.2159118652343750,569.6676025390625000,4.1858901977539060,55.4283905029296900,55,100,99,79,81,15541,0,0,0,0,2147121088,2147767588,2147574034,2147565568,305,3,13,38535
1360313815,5810,979.0599975585938000,40.6092300415039060,571.1884765625000000,4.1386198997497560,55.5353202819824200,54,97,100,78,82,15515,0,0,0,0,2147123876,2147771053,2147577618,2147569124,3480,2,13,39161
1360317415,5807,985.7700195312500000,40.6238288879394500,572.2078247070312000,4.1069321632385250,55.5501899719238300,55,98,101,78,82,15515,0,0,0,0,2147121782,2147768237,2147577197,2147567497,242,2,13,49621
1360321015,5810,984.5800170898438000,40.6206207275390600,571.9774169921875000,4.1140961647033690,55.5461196899414060,53,100,101,78,82,15516,0,0,0,0,2147122651,2147776566,2147572278,2147566153,172,3,13,4043
1360324615,5810,989.5800170898438000,40.5103683471679700,572.0590820312500000,4.1115531921386720,55.5623283386230500,56,99,100,77,82,15514,0,0,0,0,2147122596,2147774281,2147573741,2147570477,204,2,13,20449
1360328215,5810,986.5399780273438000,39.9407691955566400,571.9285278320312000,4.1156158447265625,55.6469306945800800,55,100,99,79,82,15512,0,0,0,0,2147125705,2147775908,2147569737,2147568713,240,2,13,63977
1360331815,5813,983.9400024414062000,40.7556686401367200,571.8339233398438000,4.1185569763183590,55.5211715698242200,56,99,99,77,81,15516,0,0,0,0,2147122331,2147773668,2147576338,2147569152,3531,2,13,44161
1360335415,5807,984.7600097656250000,41.5153694152832000,572.2421875000000000,4.1058621406555180,55.4113502502441400,55,96,101,80,81,15512,0,0,0,0,2147123419,2147771785,2147573906,2147567881,146,2,13,14368
1360339015,5810,985.6799926757812000,41.3255691528320300,573.3593139648438000,4.0711212158203125,55.4563293457031250,55,99,100,79,82,15517,0,0,0,0,2147123392,2147775606,2147575570,2147569545,81,2,13,44036
1360342615,5809,987.5999755859375000,41.3046493530273440,572.4603881835938000,4.0990772247314450,55.4456291198730500,55,99,101,78,83,15514,0,0,0,0,2147123803,2147773357,2147578048,2147568201,75,3,13,40743
1360346215,5812,988.4400024414062000,40.2885017395019500,572.3513183593750000,4.1024699211120605,55.5975494384765600,55,98,99,79,82,15513,0,0,0,0,2147124205,2147772708,2147575689,2147567917,3454,2,13,62840
1360349815,5809,994.9500122070312000,40.2799606323242200,571.5764770507812000,4.1265578269958500,55.5927696228027340,55,98,102,78,81,15511,0,0,0,0,2147126125,2147775378,2147575936,2147569115,184,2,13,38197
1360353415,5811,1000.9600219726562000,40.9440498352050800,570.1882934570312000,4.1697101593017580,55.4791297912597660,56,97,101,79,81,15512,0,0,0,0,2147121188,2147770130,2147568512,2147568841,3336,2,13,53111
1360357015,5810,997.4500122070312000,40.4713706970214840,569.6679077148438000,4.1858811378479000,55.5420494079589840,55,106,100,78,81,15511,0,0,0,0,2147124598,2147771766,2147572681,2147571922,3407,2,13,48849
1360360615,5811,992.0900268554688000,40.2545089721679700,570.6892700195312000,4.1541399955749510,55.5865898132324200,55,99,98,78,82,15514,0,0,0,0,2147121828,2147771008,2147572946,2147568274,81,2,13,31235
1360364215,5807,989.5000000000000000,40.2491416931152340,571.4282226562500000,4.1311697959899900,55.5898208618164060,54,100,99,78,81,15504,0,0,0,0,2147120777,2147772845,2147573906,2147569398,436,2,13,17570
1360367815,5810,987.9000244140625000,40.2162094116210940,571.0446166992188000,4.1430969238281250,55.5919418334960940,55,98,99,79,82,15508,0,0,0,0,2147121362,2147774235,2147576630,2147569453,160,2,13,65046
1360371415,5809,990.1099853515625000,41.1107788085937500,571.8814697265625000,4.1170768737792970,55.4718894958496100,55,100,100,78,82,15508,0,0,0,0,2147121718,2147772763,2147576128,2147569517,380,3,13,33800
1360375015,5809,990.2000122070312000,41.0173912048339840,571.8895263671875000,4.1168289184570310,55.4830818176269500,55,102,102,78,82,15507,0,0,0,0,2147123072,2147770889,2147572790,2147570779,528,2,13,22986
1360378615,5811,996.5300292968750000,41.2238998413085940,572.0778808593750000,4.1109700202941895,55.4590415954589840,55,97,101,78,83,15509,0,0,0,0,2147122825,2147771849,2147575881,2147572534,21,3,13,61130
1360382215,5810,1000.7399902343750000,41.3451118469238300,571.1126098632812000,4.1409821510314940,55.4256095886230500,55,97,100,78,82,15503,0,0,0,0,2147120859,2147771145,2147569234,2147570377,204,2,13,22189
1360385815,5810,997.7399902343750000,40.5290298461914060,570.9895019531250000,4.1448078155517580,55.5461997985839840,55,98,98,77,82,15503,0,0,0,0,2147120512,2147773440,2147571977,2147572699,160,2,13,23887
1360389415,5809,996.5599975585938000,40.5891494750976560,570.9415893554688000,4.1462969779968260,55.5363883972168000,54,99,100,78,81,15502,0,0,0,0,2147125110,2147772580,2147570633,2147568612,3553,2,13,4616
1360393015,5808,993.0300292968750000,40.2963485717773440,572.3186035156250000,4.1034870147705080,55.5937881469726560,55,101,99,78,81,15503,0,0,0,0,2147119716,2147771227,2147569188,2147570660,3093,2,13,49890
1360396615,5810,1000.7399902343750000,41.5345191955566400,571.8983154296875000,4.1165561676025390,55.4116783142089840,56,98,100,76,84,15503,0,0,0,0,2147123931,2147769106,2147572379,2147571602,556,2,13,8850
1360400215,5808,992.2199707031250000,40.2771682739257800,571.5529174804688000,4.1272931098937990,55.5886192321777340,54,99,100,79,82,15503,0,0,0,0,2147121718,2147771986,2147572388,2147572068,402,3,13,61211
1360403815,5806,994.0399780273438000,40.3925590515136700,572.1287841796875000,4.1093878746032715,55.5792198181152340,55,99,100,78,82,15501,0,0,0,0,2147122624,2147774144,2147576155,2147569682,3031,2,13,2839
1360407415,5811,995.9199829101562000,41.4047584533691400,571.3894042968750000,4.1323761940002440,55.4194908142089840,55,98,101,77,83,15500,0,0,0,0,2147126939,2147774070,2147576228,2147567021,3229,2,13,52933
1360411015,5810,998.7999877929688000,40.9866294860839840,571.7675170898438000,4.1206231117248535,55.4892883300781250,55,99,100,78,81,15500,0,0,0,0,2147122861,2147764726,2147572160,2147570340,97,2,13,3977
1360414615,5807,988.8499755859375000,41.0047416687011700,572.3515014648438000,4.1024627685546875,55.4950103759765600,54,97,100,77,81,15501,0,0,0,0,2147121444,2147775579,2147573394,2147570953,3591,2,13,53365
1360418215,5809,999.2199707031250000,40.6932907104492200,573.5789184570312000,4.0642890930175780,55.5478591918945300,55,98,100,78,81,15498,0,0,0,0,2147122980,2147766912,2147576850,2147570605,256,3,13,46635
1360421815,5809,996.4899902343750000,41.4285316467285160,571.8214721679688000,4.1189417839050290,55.4233283996582000,55,97,100,78,83,15515,0,0,0,0,2147123291,2147770203,2147573568,2147569307,161,2,13,19506
1360425415,5812,997.8699951171875000,40.1949996948242200,572.1110839843750000,4.1099400520324710,55.6131706237793000,55,99,100,78,82,15507,0,0,0,0,2147126848,2147772416,2147570934,2147569554,108,2,13,44287
1360429015,5812,996.4899902343750000,41.3991584777832000,571.7468261718750000,4.1212668418884280,55.4250793457031250,54,98,99,77,83,15504,0,0,0,0,2147122624,2147770294,2147579346,2147566299,3441,2,13,6372
1360432615,5809,998.7100219726562000,41.3871307373046900,571.8063964843750000,4.1194128990173340,55.4262695312500000,54,100,100,79,83,15505,0,0,0,0,2147121883,2147774994,2147571931,2147564214,3283,2,13,26039
1360436215,5807,998.7100219726562000,41.0382995605468750,572.0883789062500000,4.1106429100036620,55.4813919067382800,55,96,100,78,83,15506,0,0,0,0,2147122432,2147774445,2147571529,2147571547,223,3,13,6516
1360437356,5806,1002.3200073242188000,41.3398590087890600,571.7783203125000000,4.1202869415283200,55.4380989074707000,56,98,101,77,82,15501,0,0,0,0,2147119954,2147768128,2147573778,2147569453,3355,2,13,27390
